TimeCST,TemperatureF,Dew PointF,Humidity,Sea Level PressureIn,VisibilityMPH,Wind Direction,Wind SpeedMPH,Gust SpeedMPH,PrecipitationIn,Events,Conditions,WindDirDegrees,DateUTC
12:15 AM,49.5,41.9,75,30.30,10.0,NE,5.8,-,N/A,,Scattered Clouds,40,2013-12-28 06:15:00
12:35 AM,49.8,41.5,73,30.29,10.0,NNE,3.5,-,N/A,,Scattered Clouds,20,2013-12-28 06:35:00
12:55 AM,49.3,41.7,75,30.28,10.0,North,4.6,-,N/A,,Scattered Clouds,10,2013-12-28 06:55:00
1:15 AM,49.1,41.4,75,30.28,10.0,North,3.5,-,N/A,,Scattered Clouds,360,2013-12-28 07:15:00
1:35 AM,48.7,41.4,76,30.27,10.0,North,4.6,-,N/A,,Clear,10,2013-12-28 07:35:00
1:55 AM,48.9,41.4,75,30.28,10.0,North,3.5,-,N/A,,Scattered Clouds,10,2013-12-28 07:55:00
2:15 AM,49.1,41.0,74,30.28,10.0,North,3.5,-,N/A,,Scattered Clouds,10,2013-12-28 08:15:00
2:35 AM,49.1,41.0,74,30.28,10.0,North,3.5,-,N/A,,Overcast,360,2013-12-28 08:35:00
2:55 AM,49.1,41.2,74,30.26,10.0,North,4.6,-,N/A,,Scattered Clouds,360,2013-12-28 08:55:00
3:15 AM,48.9,40.8,74,30.27,10.0,Calm,Calm,-,N/A,,Mostly Cloudy,0,2013-12-28 09:15:00
3:35 AM,48.9,41.0,74,30.26,10.0,North,3.5,-,N/A,,Overcast,350,2013-12-28 09:35:00
3:55 AM,48.6,41.0,75,30.25,10.0,North,4.6,-,N/A,,Scattered Clouds,360,2013-12-28 09:55:00
4:15 AM,48.4,40.8,75,30.24,10.0,North,4.6,-,N/A,,Scattered Clouds,10,2013-12-28 10:15:00
4:35 AM,48.6,40.3,73,30.24,10.0,North,3.5,-,N/A,,Scattered Clouds,360,2013-12-28 10:35:00
4:55 AM,48.2,40.1,74,30.24,10.0,North,3.5,-,N/A,,Mostly Cloudy,360,2013-12-28 10:55:00
5:15 AM,48.0,39.9,74,30.24,10.0,North,3.5,-,N/A,,Mostly Cloudy,360,2013-12-28 11:15:00
5:35 AM,48.2,39.9,73,30.24,10.0,Calm,Calm,-,N/A,,Overcast,0,2013-12-28 11:35:00
5:55 AM,48.2,39.9,73,30.22,10.0,NNE,5.8,-,N/A,,Overcast,20,2013-12-28 11:55:00
6:15 AM,48.4,39.2,71,30.23,10.0,North,4.6,-,N/A,,Mostly Cloudy,360,2013-12-28 12:15:00
6:35 AM,48.2,39.4,72,30.21,10.0,NNE,4.6,-,N/A,,Scattered Clouds,20,2013-12-28 12:35:00
6:55 AM,48.2,39.2,71,30.23,10.0,North,3.5,-,N/A,,Clear,350,2013-12-28 12:55:00
7:15 AM,47.8,39.2,72,30.23,10.0,Calm,Calm,-,N/A,,Clear,0,2013-12-28 13:15:00
7:35 AM,47.7,39.7,74,30.23,10.0,North,4.6,-,N/A,,Clear,360,2013-12-28 13:35:00
7:55 AM,47.5,40.1,76,30.21,10.0,North,4.6,-,N/A,,Clear,10,2013-12-28 13:55:00
8:15 AM,48.0,39.4,72,30.25,10.0,Calm,Calm,-,N/A,,Scattered Clouds,0,2013-12-28 14:15:00
8:35 AM,48.7,39.7,71,30.24,10.0,Calm,Calm,-,N/A,,Clear,0,2013-12-28 14:35:00
8:55 AM,48.9,40.5,73,30.24,10.0,NNW,3.5,-,N/A,,Clear,340,2013-12-28 14:55:00
9:15 AM,49.5,40.1,70,30.24,10.0,North,3.5,-,N/A,,Clear,10,2013-12-28 15:15:00
9:35 AM,50.4,39.6,66,30.24,10.0,NE,4.6,-,N/A,,Clear,40,2013-12-28 15:35:00
9:55 AM,51.1,39.7,65,30.24,10.0,NNE,5.8,-,N/A,,Clear,30,2013-12-28 15:55:00
10:15 AM,51.4,40.3,66,30.24,10.0,NE,4.6,-,N/A,,Clear,40,2013-12-28 16:15:00
10:35 AM,52.2,40.3,64,30.23,10.0,NNE,4.6,-,N/A,,Clear,30,2013-12-28 16:35:00
10:55 AM,52.9,40.1,62,30.23,10.0,Calm,Calm,-,N/A,,Clear,0,2013-12-28 16:55:00
11:15 AM,53.4,40.1,61,30.22,10.0,Calm,Calm,-,N/A,,Clear,0,2013-12-28 17:15:00
11:35 AM,53.8,39.9,59,30.21,10.0,Calm,Calm,-,N/A,,Clear,0,2013-12-28 17:35:00
11:55 AM,54.3,40.3,59,30.21,10.0,Calm,Calm,-,N/A,,Clear,0,2013-12-28 17:55:00
12:15 PM,54.9,40.1,58,30.19,10.0,Calm,Calm,-,N/A,,Clear,0,2013-12-28 18:15:00
12:35 PM,55.4,40.5,57,30.17,10.0,Calm,Calm,-,N/A,,Clear,0,2013-12-28 18:35:00
12:55 PM,56.3,41.4,57,30.15,10.0,Calm,Calm,-,N/A,,Clear,0,2013-12-28 18:55:00
1:15 PM,57.4,40.1,53,30.14,10.0,Calm,Calm,-,N/A,,Clear,0,2013-12-28 19:15:00
1:35 PM,58.1,38.1,47,30.14,10.0,North,3.5,-,N/A,,Clear,350,2013-12-28 19:35:00
1:55 PM,58.6,36.3,43,30.12,10.0,Calm,Calm,-,N/A,,Clear,0,2013-12-28 19:55:00
2:15 PM,59.9,36.1,41,30.11,10.0,Calm,Calm,-,N/A,,Clear,0,2013-12-28 20:15:00
2:35 PM,61.3,35.1,37,30.10,10.0,North,3.5,-,N/A,,Clear,360,2013-12-28 20:35:00
2:55 PM,61.3,33.1,35,30.10,10.0,Calm,Calm,-,N/A,,Mostly Cloudy,0,2013-12-28 20:55:00
3:15 PM,61.3,32.0,33,30.10,10.0,Calm,Calm,-,N/A,,Overcast,0,2013-12-28 21:15:00
3:35 PM,61.7,31.1,32,30.08,10.0,Calm,Calm,-,N/A,,Scattered Clouds,0,2013-12-28 21:35:00
3:55 PM,62.1,32.0,32,30.08,10.0,Calm,Calm,-,N/A,,Clear,0,2013-12-28 21:55:00
4:15 PM,62.2,31.6,32,30.08,10.0,Calm,Calm,-,N/A,,Clear,0,2013-12-28 22:15:00
4:35 PM,62.1,31.8,32,30.06,10.0,Calm,Calm,-,N/A,,Clear,0,2013-12-28 22:35:00
4:55 PM,62.1,31.8,32,30.06,10.0,Calm,Calm,-,N/A,,Clear,0,2013-12-28 22:55:00
5:15 PM,60.8,33.1,35,30.06,10.0,Calm,Calm,-,N/A,,Clear,0,2013-12-28 23:15:00
5:35 PM,59.2,32.2,36,30.06,10.0,Calm,Calm,-,N/A,,Clear,0,2013-12-28 23:35:00
5:55 PM,57.7,31.8,37,30.06,10.0,Calm,Calm,-,N/A,,Clear,0,2013-12-28 23:55:00
6:15 PM,55.8,32.5,41,30.06,10.0,SE,3.5,-,N/A,,Clear,140,2013-12-29 00:15:00
6:35 PM,53.6,36.5,52,30.07,10.0,SSE,3.5,-,N/A,,Clear,160,2013-12-29 00:35:00
6:55 PM,50.9,41.9,71,30.06,10.0,SE,4.6,-,N/A,,Clear,140,2013-12-29 00:55:00
7:15 PM,50.0,43.3,78,30.07,10.0,Calm,Calm,-,N/A,,Clear,0,2013-12-29 01:15:00
7:35 PM,49.1,43.2,80,30.07,10.0,Calm,Calm,-,N/A,,Clear,0,2013-12-29 01:35:00
7:55 PM,48.4,43.3,83,30.08,10.0,Calm,Calm,-,N/A,,Clear,0,2013-12-29 01:55:00
8:15 PM,47.5,42.8,84,30.07,10.0,Calm,Calm,-,N/A,,Scattered Clouds,0,2013-12-29 02:15:00
8:35 PM,46.4,42.6,87,30.07,10.0,Calm,Calm,-,N/A,,Mostly Cloudy,0,2013-12-29 02:35:00
8:55 PM,45.9,43.2,90,30.07,10.0,SSE,3.5,-,N/A,,Scattered Clouds,160,2013-12-29 02:55:00
9:15 PM,46.2,44.1,92,30.07,10.0,SSE,4.6,-,N/A,,Clear,160,2013-12-29 03:15:00
9:35 PM,46.2,44.6,94,30.06,10.0,SSE,3.5,-,N/A,,Clear,150,2013-12-29 03:35:00
9:55 PM,45.9,44.6,95,30.06,7.0,Calm,Calm,-,N/A,,Clear,0,2013-12-29 03:55:00
10:15 PM,45.3,44.2,96,30.06,7.0,South,3.5,-,N/A,,Clear,180,2013-12-29 04:15:00
10:35 PM,44.4,43.7,97,30.06,3.0,Calm,Calm,-,N/A,,Clear,0,2013-12-29 04:35:00
10:55 PM,44.1,43.5,98,30.06,1.5,Calm,Calm,-,N/A,,Mist,0,2013-12-29 04:55:00
11:15 PM,44.2,43.7,98,30.06,1.8,Calm,Calm,-,N/A,,Mist,0,2013-12-29 05:15:00
11:35 PM,43.9,43.5,99,30.06,0.8,Calm,Calm,-,N/A,,Mist,0,2013-12-29 05:35:00
11:55 PM,44.1,43.7,99,30.06,0.2,Calm,Calm,-,N/A,Fog,Fog,0,2013-12-29 05:55:00